Year,Month,Day,Hour,Minute,Value (Times are PST for temperature in C)
2017,05,27,00,00,15.20
2017,05,27,00,01,15.20
2017,05,27,00,02,15.20
2017,05,27,00,03,15.20
2017,05,27,00,04,15.20
2017,05,27,00,05,15.20
2017,05,27,00,06,15.20
2017,05,27,00,07,15.20
2017,05,27,00,08,15.30
2017,05,27,00,09,15.30
2017,05,27,00,10,15.30
2017,05,27,00,11,15.40
2017,05,27,00,12,15.40
2017,05,27,00,13,15.30
2017,05,27,00,14,15.30
2017,05,27,00,15,15.30
2017,05,27,00,16,15.30
2017,05,27,00,17,15.30
2017,05,27,00,18,15.30
2017,05,27,00,19,15.30
2017,05,27,00,20,15.20
2017,05,27,00,21,15.20
2017,05,27,00,22,15.10
2017,05,27,00,23,15.10
2017,05,27,00,24,15.10
2017,05,27,00,25,15.00
2017,05,27,00,26,15.00
2017,05,27,00,27,15.00
2017,05,27,00,28,15.00
2017,05,27,00,29,15.00
2017,05,27,00,30,15.00
2017,05,27,00,31,15.00
2017,05,27,00,32,15.10
2017,05,27,00,33,15.10
2017,05,27,00,34,15.00
2017,05,27,00,35,15.00
2017,05,27,00,36,15.10
2017,05,27,00,37,15.10
2017,05,27,00,38,15.10
2017,05,27,00,39,15.00
2017,05,27,00,40,15.00
2017,05,27,00,41,15.00
2017,05,27,00,42,15.00
2017,05,27,00,43,15.00
2017,05,27,00,44,15.10
2017,05,27,00,45,15.10
2017,05,27,00,46,15.10
2017,05,27,00,47,15.20
2017,05,27,00,48,15.20
2017,05,27,00,49,15.20
2017,05,27,00,50,15.20
2017,05,27,00,51,15.20
2017,05,27,00,52,15.20
2017,05,27,00,53,15.20
2017,05,27,00,54,15.20
2017,05,27,00,55,15.20
2017,05,27,00,56,15.20
2017,05,27,00,57,15.20
2017,05,27,00,58,15.10
2017,05,27,00,59,15.10
2017,05,27,01,00,15.10
2017,05,27,01,01,15.10
2017,05,27,01,02,15.10
2017,05,27,01,03,15.10
2017,05,27,01,04,15.20
2017,05,27,01,05,15.20
2017,05,27,01,06,15.30
2017,05,27,01,07,15.30
2017,05,27,01,08,15.30
2017,05,27,01,09,15.40
2017,05,27,01,10,15.40
2017,05,27,01,11,15.50
2017,05,27,01,12,15.50
2017,05,27,01,13,15.50
2017,05,27,01,14,15.60
2017,05,27,01,15,15.60
2017,05,27,01,16,15.70
2017,05,27,01,17,15.70
2017,05,27,01,18,15.80
2017,05,27,01,19,15.80
2017,05,27,01,20,15.80
2017,05,27,01,21,15.90
2017,05,27,01,22,15.90
2017,05,27,01,23,15.90
2017,05,27,01,24,15.90
2017,05,27,01,25,15.90
2017,05,27,01,26,15.90
2017,05,27,01,27,15.90
2017,05,27,01,28,15.80
2017,05,27,01,29,15.80
2017,05,27,01,30,15.80
2017,05,27,01,31,15.80
2017,05,27,01,32,15.80
2017,05,27,01,33,15.80
2017,05,27,01,34,15.70
2017,05,27,01,35,15.70
2017,05,27,01,36,15.70
2017,05,27,01,37,15.70
2017,05,27,01,38,15.70
2017,05,27,01,39,15.70
2017,05,27,01,40,15.70
2017,05,27,01,41,15.70
2017,05,27,01,42,15.70
2017,05,27,01,43,15.80
2017,05,27,01,44,15.80
2017,05,27,01,45,15.80
2017,05,27,01,46,15.80
2017,05,27,01,47,15.70
2017,05,27,01,48,15.70
2017,05,27,01,49,15.70
2017,05,27,01,50,15.80
2017,05,27,01,51,15.80
2017,05,27,01,52,15.80
2017,05,27,01,53,15.80
2017,05,27,01,54,15.80
2017,05,27,01,55,15.90
2017,05,27,01,56,15.90
2017,05,27,01,57,15.80
2017,05,27,01,58,15.80
2017,05,27,01,59,15.80
2017,05,27,02,00,15.80
2017,05,27,02,01,15.80
2017,05,27,02,02,15.80
2017,05,27,02,03,15.70
2017,05,27,02,04,15.70
2017,05,27,02,05,15.70
2017,05,27,02,06,15.80
2017,05,27,02,07,15.80
2017,05,27,02,08,15.80
2017,05,27,02,09,15.80
2017,05,27,02,10,15.80
2017,05,27,02,11,15.80
2017,05,27,02,12,15.80
2017,05,27,02,13,15.70
2017,05,27,02,14,15.70
2017,05,27,02,15,15.70
2017,05,27,02,16,15.60
2017,05,27,02,17,15.60
2017,05,27,02,18,15.60
2017,05,27,02,19,15.60
2017,05,27,02,20,15.60
2017,05,27,02,21,15.60
2017,05,27,02,22,15.60
2017,05,27,02,23,15.60
2017,05,27,02,24,15.60
2017,05,27,02,25,15.60
2017,05,27,02,26,15.60
2017,05,27,02,27,15.60
2017,05,27,02,28,15.60
2017,05,27,02,29,15.60
2017,05,27,02,30,15.60
2017,05,27,02,31,15.60
2017,05,27,02,32,15.70
2017,05,27,02,33,15.70
2017,05,27,02,34,15.70
2017,05,27,02,35,15.70
2017,05,27,02,36,15.70
2017,05,27,02,37,15.60
2017,05,27,02,38,15.60
2017,05,27,02,39,15.60
2017,05,27,02,40,15.50
2017,05,27,02,41,15.50
2017,05,27,02,42,15.50
2017,05,27,02,43,15.50
2017,05,27,02,44,15.40
2017,05,27,02,45,15.40
2017,05,27,02,46,15.30
2017,05,27,02,47,15.30
2017,05,27,02,48,15.30
2017,05,27,02,49,15.20
2017,05,27,02,50,15.20
2017,05,27,02,51,15.20
2017,05,27,02,52,15.10
2017,05,27,02,53,15.10
2017,05,27,02,54,15.10
2017,05,27,02,55,15.00
2017,05,27,02,56,15.00
2017,05,27,02,57,15.00
2017,05,27,02,58,14.90
2017,05,27,02,59,14.90
2017,05,27,03,00,14.90
2017,05,27,03,01,14.90
2017,05,27,03,02,14.90
2017,05,27,03,03,14.90
2017,05,27,03,04,14.90
2017,05,27,03,05,14.80
2017,05,27,03,06,14.80
2017,05,27,03,07,14.80
2017,05,27,03,08,14.70
2017,05,27,03,09,14.70
2017,05,27,03,10,14.60
2017,05,27,03,11,14.60
2017,05,27,03,12,14.50
2017,05,27,03,13,14.50
2017,05,27,03,14,14.40
2017,05,27,03,15,14.40
2017,05,27,03,16,14.40
2017,05,27,03,17,14.30
2017,05,27,03,18,14.30
2017,05,27,03,19,14.20
2017,05,27,03,20,14.20
2017,05,27,03,21,14.20
2017,05,27,03,22,14.20
2017,05,27,03,23,14.10
2017,05,27,03,24,14.00
2017,05,27,03,25,14.00
2017,05,27,03,26,13.90
2017,05,27,03,27,13.90
2017,05,27,03,28,13.80
2017,05,27,03,29,13.80
2017,05,27,03,30,13.80
2017,05,27,03,31,13.80
2017,05,27,03,32,13.80
2017,05,27,03,33,13.70
2017,05,27,03,34,13.70
2017,05,27,03,35,13.60
2017,05,27,03,36,13.60
2017,05,27,03,37,13.60
2017,05,27,03,38,13.50
2017,05,27,03,39,13.50
2017,05,27,03,40,13.50
2017,05,27,03,41,13.60
2017,05,27,03,42,13.60
2017,05,27,03,43,13.60
2017,05,27,03,44,13.60
2017,05,27,03,45,13.60
2017,05,27,03,46,13.60
2017,05,27,03,47,13.60
2017,05,27,03,48,13.60
2017,05,27,03,49,13.60
2017,05,27,03,50,13.70
2017,05,27,03,51,13.70
2017,05,27,03,52,13.70
2017,05,27,03,53,13.70
2017,05,27,03,54,13.70
2017,05,27,03,55,13.70
2017,05,27,03,56,13.80
2017,05,27,03,57,13.80
2017,05,27,03,58,13.80
2017,05,27,03,59,13.80
2017,05,27,04,00,13.80
2017,05,27,04,01,13.80
2017,05,27,04,02,13.80
2017,05,27,04,03,13.80
2017,05,27,04,04,13.90
2017,05,27,04,05,13.80
2017,05,27,04,06,13.80
2017,05,27,04,07,13.80
2017,05,27,04,08,13.90
2017,05,27,04,09,13.90
2017,05,27,04,10,13.90
2017,05,27,04,11,13.90
2017,05,27,04,12,13.80
2017,05,27,04,13,13.80
2017,05,27,04,14,13.80
2017,05,27,04,15,13.80
2017,05,27,04,16,13.80
2017,05,27,04,17,13.70
2017,05,27,04,18,13.70
2017,05,27,04,19,13.70
2017,05,27,04,20,13.70
2017,05,27,04,21,13.70
2017,05,27,04,22,13.80
2017,05,27,04,23,13.80
2017,05,27,04,24,13.80
2017,05,27,04,25,13.80
2017,05,27,04,26,13.80
2017,05,27,04,27,13.80
2017,05,27,04,28,13.80
2017,05,27,04,29,13.80
2017,05,27,04,30,13.80
2017,05,27,04,31,13.80
2017,05,27,04,32,13.80
2017,05,27,04,33,13.80
2017,05,27,04,34,13.80
2017,05,27,04,35,13.80
2017,05,27,04,36,13.80
2017,05,27,04,37,13.80
2017,05,27,04,38,13.80
2017,05,27,04,39,13.80
2017,05,27,04,40,13.80
2017,05,27,04,41,13.80
2017,05,27,04,42,13.80
2017,05,27,04,43,13.90
2017,05,27,04,44,13.90
2017,05,27,04,45,13.90
2017,05,27,04,46,13.90
2017,05,27,04,47,13.90
2017,05,27,04,48,13.90
2017,05,27,04,49,13.90
2017,05,27,04,50,13.90
2017,05,27,04,51,13.90
2017,05,27,04,52,13.90
2017,05,27,04,53,13.90
2017,05,27,04,54,13.90
2017,05,27,04,55,13.90
2017,05,27,04,56,13.90
2017,05,27,04,57,14.00
2017,05,27,04,58,14.00
2017,05,27,04,59,14.00
2017,05,27,05,00,14.00
2017,05,27,05,01,14.00
2017,05,27,05,02,14.00
2017,05,27,05,03,14.00
2017,05,27,05,04,13.90
2017,05,27,05,05,13.90
2017,05,27,05,06,13.90
2017,05,27,05,07,13.90
2017,05,27,05,08,13.90
2017,05,27,05,09,13.90
2017,05,27,05,10,13.90
2017,05,27,05,11,13.90
2017,05,27,05,12,13.90
2017,05,27,05,13,13.90
2017,05,27,05,14,13.90
2017,05,27,05,15,13.90
2017,05,27,05,16,13.90
2017,05,27,05,17,13.90
2017,05,27,05,18,13.90
2017,05,27,05,19,13.90
2017,05,27,05,20,13.90
2017,05,27,05,21,13.90
2017,05,27,05,22,13.80
2017,05,27,05,23,13.80
2017,05,27,05,24,13.80
2017,05,27,05,25,13.80
2017,05,27,05,26,13.80
2017,05,27,05,27,13.70
2017,05,27,05,28,13.70
2017,05,27,05,29,13.60
2017,05,27,05,30,13.60
2017,05,27,05,31,13.60
2017,05,27,05,32,13.60
2017,05,27,05,33,13.60
2017,05,27,05,34,13.60
2017,05,27,05,35,13.60
2017,05,27,05,36,13.60
2017,05,27,05,37,13.60
2017,05,27,05,38,13.50
2017,05,27,05,39,13.50
2017,05,27,05,40,13.50
2017,05,27,05,41,13.50
2017,05,27,05,42,13.50
2017,05,27,05,43,13.40
2017,05,27,05,44,13.40
2017,05,27,05,45,13.40
2017,05,27,05,46,13.40
2017,05,27,05,47,13.40
2017,05,27,05,48,13.40
2017,05,27,05,49,13.40
2017,05,27,05,50,13.40
2017,05,27,05,51,13.40
2017,05,27,05,52,13.40
2017,05,27,05,53,13.40
2017,05,27,05,54,13.40
2017,05,27,05,55,13.50
2017,05,27,05,56,13.50
2017,05,27,05,57,13.50
2017,05,27,05,58,13.50
2017,05,27,05,59,13.50
2017,05,27,06,00,13.50
2017,05,27,06,01,13.50
2017,05,27,06,02,13.60
2017,05,27,06,03,13.50
2017,05,27,06,04,13.50
2017,05,27,06,05,13.50
2017,05,27,06,06,13.60
2017,05,27,06,07,13.60
2017,05,27,06,08,13.60
2017,05,27,06,09,13.60
2017,05,27,06,10,13.60
2017,05,27,06,11,13.60
2017,05,27,06,12,13.60
2017,05,27,06,13,13.70
2017,05,27,06,14,13.70
2017,05,27,06,15,13.70
2017,05,27,06,16,13.70
2017,05,27,06,17,13.70
2017,05,27,06,18,13.80
2017,05,27,06,19,13.80
2017,05,27,06,20,13.90
2017,05,27,06,21,13.90
2017,05,27,06,22,13.90
2017,05,27,06,23,14.00
2017,05,27,06,24,14.00
2017,05,27,06,25,14.00
2017,05,27,06,26,14.10
2017,05,27,06,27,14.10
2017,05,27,06,28,14.20
2017,05,27,06,29,14.20
2017,05,27,06,30,14.20
2017,05,27,06,31,14.20
2017,05,27,06,32,14.20
2017,05,27,06,33,14.30
2017,05,27,06,34,14.30
2017,05,27,06,35,14.30
2017,05,27,06,36,14.30
2017,05,27,06,37,14.30
2017,05,27,06,38,14.40
2017,05,27,06,39,14.40
2017,05,27,06,40,14.40
2017,05,27,06,41,14.50
2017,05,27,06,42,14.60
2017,05,27,06,43,14.60
2017,05,27,06,44,14.70
2017,05,27,06,45,14.70
2017,05,27,06,46,14.70
2017,05,27,06,47,14.70
2017,05,27,06,48,14.70
2017,05,27,06,49,14.80
2017,05,27,06,50,14.80
2017,05,27,06,51,14.80
2017,05,27,06,52,14.80
2017,05,27,06,53,14.80
2017,05,27,06,54,14.80
2017,05,27,06,55,14.90
2017,05,27,06,56,14.90
2017,05,27,06,57,14.90
2017,05,27,06,58,14.90
2017,05,27,06,59,15.00
2017,05,27,07,00,15.00
2017,05,27,07,01,15.00
2017,05,27,07,02,15.10
2017,05,27,07,03,15.10
2017,05,27,07,04,15.10
2017,05,27,07,05,15.10
2017,05,27,07,06,15.20
2017,05,27,07,07,15.20
2017,05,27,07,08,15.20
2017,05,27,07,09,15.20
2017,05,27,07,10,15.30
2017,05,27,07,11,15.30
2017,05,27,07,12,15.30
2017,05,27,07,13,15.30
2017,05,27,07,14,15.30
2017,05,27,07,15,15.40
2017,05,27,07,16,15.40
2017,05,27,07,17,15.40
2017,05,27,07,18,15.50
2017,05,27,07,19,15.50
2017,05,27,07,20,15.60
2017,05,27,07,21,15.60
2017,05,27,07,22,15.60
2017,05,27,07,23,15.70
2017,05,27,07,24,15.70
2017,05,27,07,25,15.80
2017,05,27,07,26,15.90
2017,05,27,07,27,16.00
2017,05,27,07,28,16.00
2017,05,27,07,29,16.10
2017,05,27,07,30,16.20
2017,05,27,07,31,16.30
2017,05,27,07,32,16.40
2017,05,27,07,33,16.40
2017,05,27,07,34,16.50
2017,05,27,07,35,16.50
2017,05,27,07,36,16.60
2017,05,27,07,37,16.60
2017,05,27,07,38,16.60
2017,05,27,07,39,16.70
2017,05,27,07,40,16.70
2017,05,27,07,41,16.80
2017,05,27,07,42,16.80
2017,05,27,07,43,16.90
2017,05,27,07,44,17.00
2017,05,27,07,45,17.10
2017,05,27,07,46,17.10
2017,05,27,07,47,17.20
2017,05,27,07,48,17.30
2017,05,27,07,49,17.30
2017,05,27,07,50,17.30
2017,05,27,07,51,17.30
2017,05,27,07,52,17.40
2017,05,27,07,53,17.40
2017,05,27,07,54,17.40
2017,05,27,07,55,17.50
2017,05,27,07,56,17.50
2017,05,27,07,57,17.50
2017,05,27,07,58,17.50
2017,05,27,07,59,17.50
2017,05,27,08,00,17.50
2017,05,27,08,01,17.50
2017,05,27,08,02,17.50
2017,05,27,08,03,17.50
2017,05,27,08,04,17.50
2017,05,27,08,05,17.50
2017,05,27,08,06,17.60
2017,05,27,08,07,17.50
2017,05,27,08,08,17.50
2017,05,27,08,09,17.50
2017,05,27,08,10,17.50
2017,05,27,08,11,17.40
2017,05,27,08,12,17.40
2017,05,27,08,13,17.30
2017,05,27,08,14,17.30
2017,05,27,08,15,17.30
2017,05,27,08,16,17.20
2017,05,27,08,17,17.20
2017,05,27,08,18,17.20
2017,05,27,08,19,17.10
2017,05,27,08,20,17.10
2017,05,27,08,21,17.10
2017,05,27,08,22,17.00
2017,05,27,08,23,17.00
2017,05,27,08,24,17.00
2017,05,27,08,25,17.00
2017,05,27,08,26,17.00
2017,05,27,08,27,17.00
2017,05,27,08,28,17.00
2017,05,27,08,29,17.00
2017,05,27,08,30,17.10
2017,05,27,08,31,17.10
2017,05,27,08,32,17.10
2017,05,27,08,33,17.10
2017,05,27,08,34,17.10
2017,05,27,08,35,17.20
2017,05,27,08,36,17.10
2017,05,27,08,37,17.20
2017,05,27,08,38,17.20
2017,05,27,08,39,17.20
2017,05,27,08,40,17.20
2017,05,27,08,41,17.20
2017,05,27,08,42,17.30
2017,05,27,08,43,17.30
2017,05,27,08,44,17.30
2017,05,27,08,45,17.40
2017,05,27,08,46,17.40
2017,05,27,08,47,17.50
2017,05,27,08,48,17.60
2017,05,27,08,49,17.80
2017,05,27,08,50,17.90
2017,05,27,08,51,18.00
2017,05,27,08,52,18.10
2017,05,27,08,53,18.20
2017,05,27,08,54,18.20
2017,05,27,08,55,18.20
2017,05,27,08,56,18.20
2017,05,27,08,57,18.30
2017,05,27,08,58,18.30
2017,05,27,08,59,18.40
2017,05,27,09,00,18.50
2017,05,27,09,01,18.60
2017,05,27,09,02,18.60
2017,05,27,09,03,18.70
2017,05,27,09,04,18.60
2017,05,27,09,05,18.50
2017,05,27,09,06,18.40
2017,05,27,09,07,18.40
2017,05,27,09,08,18.30
2017,05,27,09,09,18.20
2017,05,27,09,10,18.10
2017,05,27,09,11,18.10
2017,05,27,09,12,18.10
2017,05,27,09,13,18.10
2017,05,27,09,14,18.10
2017,05,27,09,15,18.10
2017,05,27,09,16,18.10
2017,05,27,09,17,18.10
2017,05,27,09,18,18.10
2017,05,27,09,19,18.10
2017,05,27,09,20,18.00
2017,05,27,09,21,18.00
2017,05,27,09,22,18.00
2017,05,27,09,23,18.00
2017,05,27,09,24,17.90
2017,05,27,09,25,17.90
2017,05,27,09,26,17.90
2017,05,27,09,27,17.80
2017,05,27,09,28,17.80
2017,05,27,09,29,17.90
2017,05,27,09,30,17.90
2017,05,27,09,31,17.90
2017,05,27,09,32,17.90
2017,05,27,09,33,17.90
2017,05,27,09,34,17.90
2017,05,27,09,35,17.80
2017,05,27,09,36,17.80
2017,05,27,09,37,17.80
2017,05,27,09,38,17.80
2017,05,27,09,39,17.80
2017,05,27,09,40,17.70
2017,05,27,09,41,17.70
2017,05,27,09,42,17.70
2017,05,27,09,43,17.70
2017,05,27,09,44,17.70
2017,05,27,09,45,17.70
2017,05,27,09,46,17.80
2017,05,27,09,47,17.80
2017,05,27,09,48,17.80
2017,05,27,09,49,17.80
2017,05,27,09,50,17.80
2017,05,27,09,51,17.80
2017,05,27,09,52,17.80
2017,05,27,09,53,17.90
2017,05,27,09,54,17.90
2017,05,27,09,55,18.00
2017,05,27,09,56,18.00
2017,05,27,09,57,18.00
2017,05,27,09,58,17.90
2017,05,27,09,59,17.90
2017,05,27,10,00,17.90
2017,05,27,10,01,17.90
2017,05,27,10,02,18.00
2017,05,27,10,03,18.00
2017,05,27,10,04,18.10
2017,05,27,10,05,18.10
2017,05,27,10,06,18.10
2017,05,27,10,07,18.00
2017,05,27,10,08,18.00
2017,05,27,10,09,17.90
2017,05,27,10,10,17.90
2017,05,27,10,11,17.90
2017,05,27,10,12,17.90
2017,05,27,10,13,17.90
2017,05,27,10,14,18.00
2017,05,27,10,15,18.00
2017,05,27,10,16,18.00
2017,05,27,10,17,18.00
2017,05,27,10,18,18.00
2017,05,27,10,19,18.00
2017,05,27,10,20,17.90
2017,05,27,10,21,18.00
2017,05,27,10,22,18.00
2017,05,27,10,23,18.10
2017,05,27,10,24,18.10
2017,05,27,10,25,18.10
2017,05,27,10,26,18.10
2017,05,27,10,27,18.10
2017,05,27,10,28,18.10
2017,05,27,10,29,18.10
2017,05,27,10,30,18.10
2017,05,27,10,31,18.10
2017,05,27,10,32,18.10
2017,05,27,10,33,18.10
2017,05,27,10,34,18.10
2017,05,27,10,35,18.10
2017,05,27,10,36,18.20
2017,05,27,10,37,18.20
2017,05,27,10,38,18.20
2017,05,27,10,39,18.20
2017,05,27,10,40,18.20
2017,05,27,10,41,18.30
2017,05,27,10,42,18.30
2017,05,27,10,43,18.30
2017,05,27,10,44,18.40
2017,05,27,10,45,18.40
2017,05,27,10,46,18.40
2017,05,27,10,47,18.40
2017,05,27,10,48,18.50
2017,05,27,10,49,18.50
2017,05,27,10,50,18.60
2017,05,27,10,51,18.70
2017,05,27,10,52,18.70
2017,05,27,10,53,18.80
2017,05,27,10,54,18.80
2017,05,27,10,55,18.80
2017,05,27,10,56,18.90
2017,05,27,10,57,18.90
2017,05,27,10,58,18.90
2017,05,27,10,59,19.00
2017,05,27,11,00,19.00
2017,05,27,11,01,19.00
2017,05,27,11,02,19.00
2017,05,27,11,03,19.00
2017,05,27,11,04,19.00
2017,05,27,11,05,19.00
2017,05,27,11,06,18.90
2017,05,27,11,07,18.90
2017,05,27,11,08,18.90
2017,05,27,11,09,18.90
2017,05,27,11,10,18.80
2017,05,27,11,11,18.80
2017,05,27,11,12,18.90
2017,05,27,11,13,18.90
2017,05,27,11,14,19.00
2017,05,27,11,15,19.10
2017,05,27,11,16,19.30
2017,05,27,11,17,19.40
2017,05,27,11,18,19.40
2017,05,27,11,19,19.50
2017,05,27,11,20,19.60
2017,05,27,11,21,19.70
2017,05,27,11,22,19.80
2017,05,27,11,23,19.90
2017,05,27,11,24,19.90
2017,05,27,11,25,19.90
2017,05,27,11,26,19.80
2017,05,27,11,27,19.80
2017,05,27,11,28,19.80
2017,05,27,11,29,19.80
2017,05,27,11,30,19.80
2017,05,27,11,31,19.70
2017,05,27,11,32,19.70
2017,05,27,11,33,19.60
2017,05,27,11,34,19.70
2017,05,27,11,35,19.60
2017,05,27,11,36,19.60
2017,05,27,11,37,19.70
2017,05,27,11,38,19.70
2017,05,27,11,39,19.60
2017,05,27,11,40,19.60
2017,05,27,11,41,19.70
2017,05,27,11,42,19.70
2017,05,27,11,43,19.60
2017,05,27,11,44,19.60
2017,05,27,11,45,19.60
2017,05,27,11,46,19.50
2017,05,27,11,47,19.40
2017,05,27,11,48,19.30
2017,05,27,11,49,19.30
2017,05,27,11,50,19.30
2017,05,27,11,51,19.20
2017,05,27,11,52,19.20
2017,05,27,11,53,19.20
2017,05,27,11,54,19.30
2017,05,27,11,55,19.30
2017,05,27,11,56,19.30
2017,05,27,11,57,19.30
2017,05,27,11,58,19.40
2017,05,27,11,59,19.40
2017,05,27,12,00,19.50
2017,05,27,12,01,19.60
2017,05,27,12,02,19.60
2017,05,27,12,03,19.70
2017,05,27,12,04,19.70
2017,05,27,12,05,19.70
2017,05,27,12,06,19.80
2017,05,27,12,07,19.80
2017,05,27,12,08,19.80
2017,05,27,12,09,19.80
2017,05,27,12,10,19.80
2017,05,27,12,11,19.80
2017,05,27,12,12,19.90
2017,05,27,12,13,19.90
2017,05,27,12,14,19.90
2017,05,27,12,15,19.90
2017,05,27,12,16,19.90
2017,05,27,12,17,20.10
2017,05,27,12,18,20.10
2017,05,27,12,19,20.10
2017,05,27,12,20,20.20
2017,05,27,12,21,20.20
2017,05,27,12,22,20.10
2017,05,27,12,23,20.00
2017,05,27,12,24,20.00
2017,05,27,12,25,20.00
2017,05,27,12,26,20.10
2017,05,27,12,27,20.20
2017,05,27,12,28,20.20
2017,05,27,12,29,20.20
2017,05,27,12,30,20.30
2017,05,27,12,31,20.30
2017,05,27,12,32,20.30
2017,05,27,12,33,20.30
2017,05,27,12,34,20.40
2017,05,27,12,35,20.40
2017,05,27,12,36,20.40
2017,05,27,12,37,20.60
2017,05,27,12,38,20.70
2017,05,27,12,39,20.80
2017,05,27,12,40,20.80
2017,05,27,12,41,20.80
2017,05,27,12,42,20.80
2017,05,27,12,43,20.80
2017,05,27,12,44,20.70
2017,05,27,12,45,20.60
2017,05,27,12,46,20.60
2017,05,27,12,47,20.60
2017,05,27,12,48,20.50
2017,05,27,12,49,20.50
2017,05,27,12,50,20.60
2017,05,27,12,51,20.60
2017,05,27,12,52,20.70
2017,05,27,12,53,20.70
2017,05,27,12,54,20.60
2017,05,27,12,55,20.60
2017,05,27,12,56,20.60
2017,05,27,12,57,20.60
2017,05,27,12,58,20.50
2017,05,27,12,59,20.40
2017,05,27,13,00,20.40
2017,05,27,13,01,20.50
2017,05,27,13,02,20.60
2017,05,27,13,03,20.70
2017,05,27,13,04,20.80
2017,05,27,13,05,20.70
2017,05,27,13,06,20.60
2017,05,27,13,07,20.40
2017,05,27,13,08,20.30
2017,05,27,13,09,20.30
2017,05,27,13,10,20.20
2017,05,27,13,11,20.30
2017,05,27,13,12,20.30
2017,05,27,13,13,20.40
2017,05,27,13,14,20.40
2017,05,27,13,15,20.40
2017,05,27,13,16,20.50
2017,05,27,13,17,20.60
2017,05,27,13,18,20.80
2017,05,27,13,19,20.90
2017,05,27,13,20,21.00
2017,05,27,13,21,21.10
2017,05,27,13,22,21.10
2017,05,27,13,23,21.10
2017,05,27,13,24,21.10
2017,05,27,13,25,21.20
2017,05,27,13,26,21.20
2017,05,27,13,27,21.20
2017,05,27,13,28,21.30
2017,05,27,13,29,21.30
2017,05,27,13,30,21.30
2017,05,27,13,31,21.30
2017,05,27,13,32,21.40
2017,05,27,13,33,21.40
2017,05,27,13,34,21.40
2017,05,27,13,35,21.40
2017,05,27,13,36,21.30
2017,05,27,13,37,21.30
2017,05,27,13,38,21.30
2017,05,27,13,39,21.40
2017,05,27,13,40,21.50
2017,05,27,13,41,21.60
2017,05,27,13,42,21.70
2017,05,27,13,43,21.70
2017,05,27,13,44,21.80
2017,05,27,13,45,21.80
2017,05,27,13,46,21.80
2017,05,27,13,47,21.80
2017,05,27,13,48,21.70
2017,05,27,13,49,21.60
2017,05,27,13,50,21.50
2017,05,27,13,51,21.40
2017,05,27,13,52,21.30
2017,05,27,13,53,21.20
2017,05,27,13,54,21.10
2017,05,27,13,55,21.10
2017,05,27,13,56,21.10
2017,05,27,13,57,21.10
2017,05,27,13,58,21.20
2017,05,27,13,59,21.20
2017,05,27,14,00,21.20
2017,05,27,14,01,21.20
2017,05,27,14,02,21.30
2017,05,27,14,03,21.30
2017,05,27,14,04,21.40
2017,05,27,14,05,21.40
2017,05,27,14,06,21.50
2017,05,27,14,07,21.50
2017,05,27,14,08,21.60
2017,05,27,14,09,21.60
2017,05,27,14,10,21.60
2017,05,27,14,11,21.60
2017,05,27,14,12,21.60
2017,05,27,14,13,21.70
2017,05,27,14,14,21.70
2017,05,27,14,15,21.70
2017,05,27,14,16,21.80
2017,05,27,14,17,21.90
2017,05,27,14,18,21.90
2017,05,27,14,19,21.90
2017,05,27,14,20,22.00
2017,05,27,14,21,22.10
2017,05,27,14,22,22.10
2017,05,27,14,23,22.20
2017,05,27,14,24,22.30
2017,05,27,14,25,22.30
2017,05,27,14,26,22.30
2017,05,27,14,27,22.40
2017,05,27,14,28,22.40
2017,05,27,14,29,22.40
2017,05,27,14,30,22.40
2017,05,27,14,31,22.40
2017,05,27,14,32,22.40
2017,05,27,14,33,22.30
2017,05,27,14,34,22.30
2017,05,27,14,35,22.30
2017,05,27,14,36,22.40
2017,05,27,14,37,22.40
2017,05,27,14,38,22.40
2017,05,27,14,39,22.50
2017,05,27,14,40,22.70
2017,05,27,14,41,22.80
2017,05,27,14,42,22.80
2017,05,27,14,43,22.90
2017,05,27,14,44,22.80
2017,05,27,14,45,22.80
2017,05,27,14,46,22.80
2017,05,27,14,47,22.80
2017,05,27,14,48,22.70
2017,05,27,14,49,22.70
2017,05,27,14,50,22.80
2017,05,27,14,51,22.80
2017,05,27,14,52,22.90
2017,05,27,14,53,22.80
2017,05,27,14,54,22.80
2017,05,27,14,55,22.70
2017,05,27,14,56,22.70
2017,05,27,14,57,22.60
2017,05,27,14,58,22.60
2017,05,27,14,59,22.60
2017,05,27,15,00,22.70
2017,05,27,15,01,22.70
2017,05,27,15,02,22.70
2017,05,27,15,03,22.70
2017,05,27,15,04,22.70
2017,05,27,15,05,22.70
2017,05,27,15,06,22.60
2017,05,27,15,07,22.60
2017,05,27,15,08,22.50
2017,05,27,15,09,22.50
2017,05,27,15,10,22.50
2017,05,27,15,11,22.50
2017,05,27,15,12,22.60
2017,05,27,15,13,22.50
2017,05,27,15,14,22.50
2017,05,27,15,15,22.40
2017,05,27,15,16,22.30
2017,05,27,15,17,22.30
2017,05,27,15,18,22.40
2017,05,27,15,19,22.60
2017,05,27,15,20,22.60
2017,05,27,15,21,22.50
2017,05,27,15,22,22.50
2017,05,27,15,23,22.40
2017,05,27,15,24,22.40
2017,05,27,15,25,22.40
2017,05,27,15,26,22.40
2017,05,27,15,27,22.40
2017,05,27,15,28,22.40
2017,05,27,15,29,22.40
2017,05,27,15,30,22.50
2017,05,27,15,31,22.50
2017,05,27,15,32,22.50
2017,05,27,15,33,22.40
2017,05,27,15,34,22.40
2017,05,27,15,35,22.40
2017,05,27,15,36,22.50
2017,05,27,15,37,22.50
2017,05,27,15,38,22.60
2017,05,27,15,39,22.70
2017,05,27,15,40,22.80
2017,05,27,15,41,22.80
2017,05,27,15,42,22.80
2017,05,27,15,43,22.90
2017,05,27,15,44,22.90
2017,05,27,15,45,22.90
2017,05,27,15,46,22.90
2017,05,27,15,47,22.90
2017,05,27,15,48,23.00
2017,05,27,15,49,23.10
2017,05,27,15,50,23.20
2017,05,27,15,51,23.20
2017,05,27,15,52,23.20
2017,05,27,15,53,23.10
2017,05,27,15,54,23.00
2017,05,27,15,55,22.80
2017,05,27,15,56,22.80
2017,05,27,15,57,22.70
2017,05,27,15,58,22.70
2017,05,27,15,59,22.70
2017,05,27,16,00,22.70
2017,05,27,16,01,22.80
2017,05,27,16,02,22.90
2017,05,27,16,03,22.90
2017,05,27,16,04,22.90
2017,05,27,16,05,22.90
2017,05,27,16,06,22.80
2017,05,27,16,07,22.80
2017,05,27,16,08,22.70
2017,05,27,16,09,22.70
2017,05,27,16,10,22.80
2017,05,27,16,11,22.90
2017,05,27,16,12,22.90
2017,05,27,16,13,22.90
2017,05,27,16,14,22.90
2017,05,27,16,15,22.90
2017,05,27,16,16,22.90
2017,05,27,16,17,22.90
2017,05,27,16,18,22.90
2017,05,27,16,19,22.80
2017,05,27,16,20,22.70
2017,05,27,16,21,22.60
2017,05,27,16,22,22.60
2017,05,27,16,23,22.50
2017,05,27,16,24,22.50
2017,05,27,16,25,22.40
2017,05,27,16,26,22.40
2017,05,27,16,27,22.30
2017,05,27,16,28,22.30
2017,05,27,16,29,22.30
2017,05,27,16,30,22.30
2017,05,27,16,31,22.40
2017,05,27,16,32,22.50
2017,05,27,16,33,22.50
2017,05,27,16,34,22.60
2017,05,27,16,35,22.60
2017,05,27,16,36,22.60
2017,05,27,16,37,22.70
2017,05,27,16,38,22.70
2017,05,27,16,39,22.70
2017,05,27,16,40,22.70
2017,05,27,16,41,22.70
2017,05,27,16,42,22.70
2017,05,27,16,43,22.80
2017,05,27,16,44,22.90
2017,05,27,16,45,22.90
2017,05,27,16,46,22.90
2017,05,27,16,47,23.00
2017,05,27,16,48,23.00
2017,05,27,16,49,23.00
2017,05,27,16,50,23.00
2017,05,27,16,51,22.90
2017,05,27,16,52,22.80
2017,05,27,16,53,22.80
2017,05,27,16,54,22.70
2017,05,27,16,55,22.70
2017,05,27,16,56,22.70
2017,05,27,16,57,22.60
2017,05,27,16,58,22.60
2017,05,27,16,59,22.60
2017,05,27,17,00,22.60
2017,05,27,17,01,22.60
2017,05,27,17,02,22.60
2017,05,27,17,03,22.60
2017,05,27,17,04,22.60
2017,05,27,17,05,22.60
2017,05,27,17,06,22.70
2017,05,27,17,07,22.80
2017,05,27,17,08,22.80
2017,05,27,17,09,22.80
2017,05,27,17,10,22.80
2017,05,27,17,11,22.80
2017,05,27,17,12,22.80
2017,05,27,17,13,22.70
2017,05,27,17,14,22.70
2017,05,27,17,15,22.70
2017,05,27,17,16,22.70
2017,05,27,17,17,22.70
2017,05,27,17,18,22.80
2017,05,27,17,19,22.80